Location: ??
(35.5052°N, 139.7262°E)
Time: 03:34:52
(UTC+00:00)

Cosmos 2278 Rocket - Pass Details

Date: 20 June 2021
Orbit: 840 x 846 km, 71.0° (Epoch: 26 July)

Event Time Altitude Azimuth Distance (km) Brightness Sun altitude
Rises 14:26:53 0° 326° (NNW) 3,407 6.2 -30.9°
Reaches altitude 10° 14:29:36 10° 316° (NW) 2,469 5.2 -31.0°
Enters shadow 14:33:09 27° 281° (WNW) 1,561 3.6 -31.0°
